Tracking 31027 objects as of 19-Jul-2025
HD Live streaming from Space Station
objects crossing your sky now

FENGYUN 1C DEB

Track FENGYUN 1C DEB now!
10-day predictions


NORAD ID: 37081
Int'l Code: 1999-025EFR
Perigee: 668.5 km
Apogee: 1,076.1 km
Inclination: 98.7 °
Period: 102.3 minutes
Semi major axis: 7243 km
RCS: 0.0002 m2 (small)
Launch date: May 10, 1999
Source: People's Republic of China (PRC)
Launch site: Taiyaun Space Center, China (TSC)

Note: This is SATELLITE DEBRIS
Your satellite tracking list
STARLINK-2062
Track 1 satellite(s)




NASA's NSSDC Master Catalog

Two Line Element Set (TLE):
1 37081U 99025EFR 25194.67850816  .00008901  00000-0  36299-2 0  9995
2 37081  98.7189 351.3216 0281418  61.7643 301.1632 14.08310309564308
Source of the keplerian elements: AFSPC